THY2128 LTFM-LTAI

Flight info

Callsign THY2128
Flight time 0h 48m
Altitude 39000
Route RATVU UT35 BABSA
Aircraft B77W/H-SDE1E2E3FGHIJ2J3J4J5M1RWXY/LB1D1

Departure

Time 2026-02-18 10:33
Airport İstanbul Airport (LTFM)

Arrival

Time 2026-02-18 11:22
Airport Antalya International Airport (LTAI)
Time Latitude Longitude Altitude Speed Heading
2026-02-18 10:02 41.26243 28.73629 339 ft 0 kts 71°
2026-02-18 10:28 41.26243 28.73633 339 ft 1 kts 82°
2026-02-18 10:28 41.26242 28.73639 335 ft 1 kts 100°
2026-02-18 10:28 41.26234 28.73648 333 ft 2 kts 146°
2026-02-18 10:28 41.26215 28.73642 335 ft 3 kts 222°
2026-02-18 10:29 41.26213 28.73599 333 ft 7 kts 268°
2026-02-18 10:29 41.26219 28.73465 336 ft 7 kts 274°
2026-02-18 10:29 41.26220 28.73396 336 ft 7 kts 270°
2026-02-18 10:30 41.26219 28.73326 336 ft 8 kts 269°
2026-02-18 10:30 41.26219 28.73255 336 ft 8 kts 269°
2026-02-18 10:30 41.26218 28.73182 336 ft 8 kts 269°
2026-02-18 10:30 41.26216 28.73109 336 ft 8 kts 268°
2026-02-18 10:31 41.26214 28.73036 338 ft 8 kts 270°
2026-02-18 10:31 41.26215 28.72961 337 ft 8 kts 269°
2026-02-18 10:31 41.26213 28.72886 339 ft 8 kts 268°
2026-02-18 10:31 41.26217 28.72811 337 ft 8 kts 295°
2026-02-18 10:32 41.26266 28.72775 335 ft 9 kts 358°
2026-02-18 10:32 41.26273 28.72774 336 ft 0 kts 358°
2026-02-18 10:32 41.26275 28.72774 336 ft 1 kts 358°
2026-02-18 10:33 41.26386 28.72771 337 ft 57 kts 359°
2026-02-18 10:33 41.28336 28.72628 1193 ft 180 kts 352°
2026-02-18 10:33 41.29663 28.72519 2087 ft 202 kts 352°
2026-02-18 10:34 41.31133 28.72456 2901 ft 218 kts 356°
2026-02-18 10:34 41.34168 28.72532 4783 ft 235 kts 356°
2026-02-18 10:34 41.35756 28.72461 4907 ft 221 kts 343°
2026-02-18 10:34 41.37085 28.71438 5207 ft 229 kts 311°
2026-02-18 10:35 41.37939 28.69627 5503 ft 234 kts 293°
2026-02-18 10:35 41.38253 28.67676 5736 ft 237 kts 272°
2026-02-18 10:35 41.38168 28.65475 6039 ft 240 kts 269°
2026-02-18 10:35 41.38117 28.62875 6021 ft 244 kts 271°
2026-02-18 10:36 41.37777 28.57812 5996 ft 241 kts 246°
2026-02-18 10:36 41.35785 28.55460 6061 ft 258 kts 206°
2026-02-18 10:36 41.35140 28.55166 6020 ft 263 kts 197°
2026-02-18 10:37 41.26003 28.55265 5994 ft 261 kts 178°
2026-02-18 10:37 41.21460 28.59840 7452 ft 275 kts 140°
2026-02-18 10:37 41.18594 28.63420 9314 ft 290 kts 141°
2026-02-18 10:38 41.16959 28.65494 10239 ft 301 kts 141°
2026-02-18 10:38 41.15393 28.67483 10710 ft 326 kts 140°
2026-02-18 10:38 41.13673 28.69670 10974 ft 358 kts 140°
2026-02-18 10:38 41.11891 28.72147 11273 ft 384 kts 130°
2026-02-18 10:39 41.10403 28.75164 12185 ft 396 kts 124°
2026-02-18 10:39 40.95994 28.99198 18981 ft 416 kts 149°
2026-02-18 10:39 40.66196 28.99638 24923 ft 379 kts 219°
2026-02-18 10:39 40.64151 28.97494 25606 ft 387 kts 219°
2026-02-18 10:40 40.61816 28.95447 25745 ft 410 kts 210°
2026-02-18 10:40 40.57240 28.93576 26039 ft 444 kts 187°
2026-02-18 10:40 40.51163 28.95479 26959 ft 471 kts 148°
2026-02-18 10:40 40.42941 29.03827 28851 ft 481 kts 148°
2026-02-18 10:41 40.25412 29.18796 31433 ft 498 kts 149°
2026-02-18 10:41 39.74396 29.46737 36547 ft 506 kts 160°
2026-02-18 10:41 39.48302 29.60393 38331 ft 511 kts 164°
2026-02-18 10:42 39.05323 29.81652 38904 ft 528 kts 164°
2026-02-18 10:42 38.98261 29.85121 38756 ft 515 kts 165°
2026-02-18 10:42 38.85442 29.91580 38254 ft 484 kts 161°
2026-02-18 10:42 38.76825 29.95744 38267 ft 471 kts 168°
2026-02-18 10:43 38.70693 29.98396 38553 ft 478 kts 167°
2026-02-18 10:43 38.64583 30.01209 38665 ft 489 kts 166°
2026-02-18 10:43 38.58113 30.04275 38678 ft 500 kts 165°
2026-02-18 10:43 38.51534 30.07397 38659 ft 508 kts 165°
2026-02-18 10:44 38.38156 30.13702 38674 ft 512 kts 166°
2026-02-18 10:44 38.25455 30.19554 38640 ft 499 kts 167°
2026-02-18 10:45 38.12783 30.25372 38689 ft 490 kts 166°
2026-02-18 10:46 38.06298 30.28343 38701 ft 501 kts 166°
2026-02-18 10:46 38.00190 30.31502 38672 ft 520 kts 153°
2026-02-18 10:46 37.94561 30.37507 38723 ft 533 kts 145°
2026-02-18 10:46 37.88432 30.42361 38649 ft 508 kts 171°
2026-02-18 10:47 37.81672 30.42612 38644 ft 479 kts 196°
2026-02-18 10:47 37.75537 30.40083 37072 ft 445 kts 219°
2026-02-18 10:47 37.70694 30.35677 35671 ft 416 kts 221°
2026-02-18 10:47 37.66020 30.31711 34271 ft 393 kts 220°
2026-02-18 10:48 37.61548 30.28103 32734 ft 377 kts 213°
2026-02-18 10:48 37.57156 30.26799 31401 ft 383 kts 194°
2026-02-18 10:48 37.54501 30.26498 30698 ft 384 kts 194°
2026-02-18 10:48 37.51842 30.26167 29980 ft 383 kts 194°
2026-02-18 10:49 37.49235 30.25823 29215 ft 379 kts 194°
2026-02-18 10:49 37.44047 30.25113 27520 ft 370 kts 194°
2026-02-18 10:49 37.42326 30.24875 26986 ft 366 kts 193°
2026-02-18 10:50 37.38999 30.24418 25960 ft 360 kts 193°
2026-02-18 10:50 37.37319 30.24187 25450 ft 357 kts 193°
2026-02-18 10:50 37.34863 30.23848 24710 ft 353 kts 192°
2026-02-18 10:50 37.32429 30.23511 23998 ft 350 kts 192°
2026-02-18 10:51 37.30014 30.23179 23287 ft 347 kts 191°
2026-02-18 10:51 37.27624 30.22861 22454 ft 344 kts 191°
2026-02-18 10:51 37.25288 30.22535 21645 ft 341 kts 191°
2026-02-18 10:51 37.22939 30.22205 20824 ft 338 kts 192°
2026-02-18 10:52 37.20612 30.21886 20047 ft 335 kts 192°
2026-02-18 10:52 37.18302 30.21572 19291 ft 332 kts 192°
2026-02-18 10:52 37.15998 30.21459 18529 ft 335 kts 178°
2026-02-18 10:52 37.13771 30.22427 17773 ft 347 kts 153°
2026-02-18 10:53 37.11964 30.24458 16974 ft 355 kts 131°
2026-02-18 10:53 37.10456 30.30289 15396 ft 360 kts 85°
2026-02-18 10:53 37.11122 30.33265 14626 ft 354 kts 59°
2026-02-18 10:54 37.12588 30.35662 13908 ft 343 kts 38°
2026-02-18 10:54 37.14519 30.37322 13151 ft 332 kts 22°
2026-02-18 10:54 37.16653 30.38246 12332 ft 319 kts
2026-02-18 10:54 37.18838 30.38504 11569 ft 312 kts 360°
2026-02-18 10:55 37.20984 30.38731 11052 ft 309 kts
2026-02-18 10:55 37.23139 30.39000 10848 ft 312 kts
2026-02-18 10:55 37.25287 30.39283 10750 ft 307 kts
2026-02-18 10:55 37.27410 30.39567 10801 ft 307 kts
2026-02-18 10:56 37.29525 30.39849 10812 ft 314 kts
2026-02-18 10:56 37.31709 30.40144 10813 ft 314 kts
2026-02-18 10:56 37.33869 30.40434 10818 ft 309 kts
2026-02-18 10:56 37.35969 30.40715 10802 ft 298 kts
2026-02-18 10:57 37.37984 30.40988 10799 ft 284 kts
2026-02-18 10:57 37.41737 30.41497 10809 ft 262 kts
2026-02-18 10:57 37.43549 30.41739 10815 ft 261 kts
2026-02-18 10:58 37.45363 30.41981 10824 ft 262 kts
2026-02-18 10:58 37.47179 30.42224 10834 ft 263 kts
2026-02-18 10:58 37.49001 30.42469 10831 ft 264 kts
2026-02-18 10:58 37.50824 30.42715 10833 ft 264 kts
2026-02-18 10:59 37.52654 30.42962 10846 ft 265 kts
2026-02-18 10:59 37.54492 30.43209 10827 ft 266 kts
2026-02-18 10:59 37.56300 30.43461 10827 ft 262 kts
2026-02-18 10:59 37.57990 30.44272 10831 ft 267 kts 36°
2026-02-18 11:00 37.59140 30.46156 10849 ft 280 kts 69°
2026-02-18 11:00 37.59389 30.48577 10847 ft 279 kts 97°
2026-02-18 11:00 37.59157 30.50987 10839 ft 277 kts 98°
2026-02-18 11:00 37.58772 30.53328 10820 ft 269 kts 119°
2026-02-18 11:01 37.57583 30.55049 10856 ft 260 kts 154°
2026-02-18 11:01 37.54125 30.55923 10834 ft 254 kts 189°
2026-02-18 11:01 37.52375 30.55683 10837 ft 251 kts 192°
2026-02-18 11:02 37.50658 30.55415 10830 ft 252 kts 191°
2026-02-18 11:02 37.48916 30.55154 10840 ft 252 kts 192°
2026-02-18 11:02 37.47179 30.54889 10832 ft 251 kts 191°
2026-02-18 11:02 37.45445 30.54636 10831 ft 251 kts 191°
2026-02-18 11:03 37.43716 30.54390 10812 ft 250 kts 191°
2026-02-18 11:03 37.41994 30.54151 10838 ft 247 kts 191°
2026-02-18 11:03 37.40282 30.53909 10827 ft 247 kts 191°
2026-02-18 11:03 37.38571 30.53669 10845 ft 248 kts 191°
2026-02-18 11:04 37.36845 30.53428 10821 ft 250 kts 191°
2026-02-18 11:04 37.35107 30.53187 10823 ft 252 kts 191°
2026-02-18 11:04 37.33365 30.52945 10825 ft 252 kts 191°
2026-02-18 11:04 37.31639 30.52706 10829 ft 252 kts 191°
2026-02-18 11:05 37.29891 30.52467 10835 ft 253 kts 191°
2026-02-18 11:05 37.26377 30.51975 10835 ft 253 kts 191°
2026-02-18 11:05 37.24641 30.51734 10834 ft 253 kts 191°
2026-02-18 11:06 37.22886 30.51492 10833 ft 253 kts 191°
2026-02-18 11:06 37.21131 30.51249 10819 ft 253 kts 191°
2026-02-18 11:06 37.19378 30.51007 10817 ft 252 kts 191°
2026-02-18 11:06 37.17635 30.50765 10831 ft 251 kts 191°
2026-02-18 11:07 37.15914 30.50528 10811 ft 252 kts 191°
2026-02-18 11:07 37.14168 30.50287 10818 ft 251 kts 192°
2026-02-18 11:07 37.12479 30.50054 10812 ft 249 kts 192°
2026-02-18 11:07 37.10755 30.49880 10816 ft 249 kts 182°
2026-02-18 11:08 37.09089 30.50517 10844 ft 266 kts 148°
2026-02-18 11:08 37.07895 30.52357 10834 ft 279 kts 115°
2026-02-18 11:08 37.07230 30.54639 10829 ft 279 kts 112°
2026-02-18 11:08 37.06530 30.56935 10847 ft 283 kts 113°
2026-02-18 11:09 37.05825 30.59193 10837 ft 281 kts 114°
2026-02-18 11:09 37.04396 30.63720 10838 ft 275 kts 114°
2026-02-18 11:09 37.03655 30.65924 10830 ft 271 kts 122°
2026-02-18 11:10 37.02417 30.67577 10847 ft 263 kts 156°
2026-02-18 11:10 37.00685 30.68223 10862 ft 261 kts 180°
2026-02-18 11:10 36.98887 30.68176 10842 ft 256 kts 190°
2026-02-18 11:10 36.97114 30.68012 10652 ft 256 kts 189°
2026-02-18 11:11 36.95307 30.67855 10236 ft 260 kts 188°
2026-02-18 11:11 36.93512 30.67703 9993 ft 256 kts 188°
2026-02-18 11:11 36.91771 30.67558 9789 ft 251 kts 188°
2026-02-18 11:11 36.90047 30.67409 9568 ft 247 kts 188°
2026-02-18 11:12 36.88340 30.67265 9406 ft 246 kts 188°
2026-02-18 11:12 36.86611 30.67119 9200 ft 250 kts 187°
2026-02-18 11:12 36.84866 30.66973 9007 ft 252 kts 187°
2026-02-18 11:12 36.83106 30.66826 8800 ft 254 kts 187°
2026-02-18 11:13 36.81365 30.66682 8586 ft 252 kts 187°
2026-02-18 11:13 36.77903 30.66397 8231 ft 248 kts 187°
2026-02-18 11:13 36.76180 30.66254 7919 ft 245 kts 186°
2026-02-18 11:14 36.74484 30.66113 7372 ft 243 kts 186°
2026-02-18 11:14 36.72805 30.65974 6863 ft 239 kts 185°
2026-02-18 11:14 36.71159 30.65838 6348 ft 234 kts 185°
2026-02-18 11:14 36.69573 30.65707 5814 ft 228 kts 186°
2026-02-18 11:15 36.68002 30.65579 5332 ft 223 kts 186°
2026-02-18 11:15 36.66471 30.65452 4883 ft 216 kts 186°
2026-02-18 11:15 36.64990 30.65395 4375 ft 212 kts 176°
2026-02-18 11:15 36.63688 30.66187 3865 ft 216 kts 133°
2026-02-18 11:16 36.63045 30.67873 3420 ft 220 kts 100°
2026-02-18 11:16 36.63164 30.69765 2848 ft 221 kts 70°
2026-02-18 11:16 36.63991 30.71349 2339 ft 218 kts 39°
2026-02-18 11:16 36.65310 30.72259 1837 ft 219 kts 17°
2026-02-18 11:17 36.66763 30.72878 1533 ft 220 kts 17°
2026-02-18 11:17 36.69491 30.74186 1484 ft 205 kts 25°
2026-02-18 11:17 36.70766 30.74969 1506 ft 202 kts 26°
2026-02-18 11:18 36.71992 30.75725 1489 ft 191 kts 26°
2026-02-18 11:18 36.73190 30.76454 1487 ft 191 kts 26°
2026-02-18 11:18 36.74381 30.77174 1487 ft 188 kts 26°
2026-02-18 11:18 36.75553 30.77881 1490 ft 186 kts 26°
2026-02-18 11:19 36.76693 30.78565 1478 ft 182 kts 26°
2026-02-18 11:19 36.77848 30.79177 1476 ft 179 kts 15°
2026-02-18 11:19 36.79083 30.79440 1500 ft 181 kts
2026-02-18 11:19 36.80329 30.79654 1491 ft 180 kts
2026-02-18 11:20 36.81524 30.79824 1500 ft 169 kts
2026-02-18 11:20 36.82690 30.79983 1291 ft 166 kts
2026-02-18 11:20 36.83779 30.80132 1070 ft 149 kts
2026-02-18 11:20 36.84774 30.80268 890 ft 142 kts
2026-02-18 11:21 36.85749 30.80408 683 ft 138 kts
2026-02-18 11:21 36.87632 30.80675 320 ft 138 kts
2026-02-18 11:21 36.88577 30.80808 211 ft 129 kts
2026-02-18 11:22 36.89348 30.80898 201 ft 90 kts
2026-02-18 11:22 36.89814 30.80956 199 ft 46 kts 358°
2026-02-18 11:22 36.90004 30.80888 197 ft 7 kts 334°
2026-02-18 11:22 36.90052 30.80859 206 ft 8 kts 334°
2026-02-18 11:23 36.90092 30.80810 209 ft 9 kts 287°
2026-02-18 11:23 36.90059 30.80756 203 ft 9 kts 199°
2026-02-18 11:23 36.89995 30.80749 201 ft 10 kts 185°
2026-02-18 11:23 36.89922 30.80742 201 ft 11 kts 185°
2026-02-18 11:24 36.89842 30.80734 208 ft 12 kts 185°
2026-02-18 11:24 36.89758 30.80718 208 ft 13 kts 186°
2026-02-18 11:24 36.89667 30.80705 203 ft 14 kts 186°
2026-02-18 11:24 36.89574 30.80673 211 ft 14 kts 221°
2026-02-18 11:25 36.89565 30.80557 205 ft 14 kts 280°
2026-02-18 11:25 36.89588 30.80314 201 ft 11 kts 279°
2026-02-18 11:25 36.89630 30.80234 211 ft 12 kts 324°
2026-02-18 11:26 36.89673 30.80198 204 ft 3 kts 326°
2026-02-18 11:26 36.89693 30.80183 208 ft 3 kts 330°
2026-02-18 11:26 36.89696 30.80181 208 ft 0 kts 330°
2026-02-18 11:27 36.89706 30.80160 211 ft 0 kts 352°